Regional Weather Roundup
Issued by NWS Jackson, KY

Home | Current Version | Previous Version | Graphics & Text | Print | Product List | Glossary On
Versions: 1 2 3 4 5 6 7 8 9 10 11 12 13 14 15 16 17 18 19 20 21 22 23 24 25 26 27 28 29 30 31 32 33 34 35 36 37 38 39 40 41 42 43 44 45 46 47 48 49 50
000
ASUS43 KJKL 311110
RWRJKL

EAST KENTUCKY HOURLY WEATHER ROUNDUP
NATIONAL WEATHER SERVICE JACKSON KY
700 AM EDT MON AUG 31 2015

NOTE: "FAIR" INDICATES FEW OR NO CLOUDS BELOW 12,000 FEET WITH
NO SIGNIFICANT WEATHER AND/OR OBSTRUCTIONS TO VISIBILITY.

* THESE REPORTS ARE NOT UNDER NWS QUALITY CONTROL AND MAY NOT
  REPORT WEATHER SUCH AS PRECIPITATION AND FOG.

KYZ079-080-083-085-087-088-110-112-115-119-120-311200
...EASTERN KENTUCKY...

CITY           SKY/WX    TMP DP  RH WIND       PRES   REMARKS
JACKSON        FOG       66  64  93 CALM      30.13R VSB 1/4
LONDON         CLEAR     65  62  90 CALM      30.14R FOG
SOMERSET*      FOG       64  64 100 CALM      30.14R VSB<1/4
MONTICELLO*    FOG       60  60 100 CALM      30.16R VSB<1/4
MIDDLESBORO*   CLEAR     62  61  97 CALM      30.15R
HARLAN APT*      N/A     63  63 100 MISG      30.16R
HAZARD APT*    PTSUNNY   66  66 100 CALM      30.14R FOG
BLACK MTN*       N/A     61  57  88 CALM        N/A
PIKEVILLE APT* CLOUDY    66  66 100 SE3       30.14R
BIG SANDY*     MOSUNNY   67  67  98 CALM      30.13R
MOREHEAD APT*  MOSUNNY   64  63  94 CALM      30.14R FOG
$$

KYZ035-036-041-042-044-050-067-078-099-311200
...CENTRAL KENTUCKY...

CITY           SKY/WX    TMP DP  RH WIND       PRES   REMARKS
MT STERLING*   CLEAR     63  63 100 CALM      30.14R FOG
FLEMING/MASON* CLEAR     64  63  94 S5        30.13R FOG
DANVILLE*      CLEAR     61  59  94 CALM      30.13R
RICHMOND*      CLEAR     61  59  94 CALM      30.12R
LEXINGTON      CLOUDY    67  64  90 S3        30.12R
FRANKFORT      CLEAR     64  62  93 CALM      30.11R
$$

KYZ091>093-OHZ055-061-077-WVZ005-015-034-035-042-311200
...SOUTHERN OHIO/WEST VIRGINIA...

CITY           SKY/WX    TMP DP  RH WIND       PRES   REMARKS
COVINGTON      PTCLDY    65  64  97 S3        30.10R
COLUMBUS       PTCLDY    67  66  97 SE5       30.09R
DAYTON         PTCLDY    67  67 100 SW6       30.11R
WILMINGTON     CLEAR     64  62  93 S3        30.11R FOG
HUNTINGTON     PTCLDY    65  64  97 CALM      30.11R FOG
CHARLESTON     FOG       66  64  93 CALM      30.12R VSB 1
PINEVILLE*     CLOUDY    65  65 100 MISG      30.21R FOG
BECKLEY        CLOUDY    64  60  87 CALM      30.19R
BLUEFIELD      CLOUDY    65  59  81 CALM      30.20R
$$

VAZ002-007-008-TNZ017-027-036-066-071-311200
...SOUTHWEST VIRGINIA/EAST TENNESSEE...

CITY           SKY/WX    TMP DP  RH WIND       PRES   REMARKS
WISE*          CLOUDY    64  63  94 S3        30.21R
JONESVILLE*    CLOUDY    63  63 100 CALM      30.18R FOG
ABINGDON*      DRIZZLE   65  64  94 E5        30.18S
BRISTOL        CLOUDY    66  64  93 CALM      30.16R
KNOXVILLE      PTCLDY    65  65 100 E3        30.11R
OAK RIDGE      FOG       66  66 100 CALM      30.14R VSB 1/4
CROSSVILLE     MOCLDY    64  60  87 CALM      30.16R FOG
NASHVILLE      CLEAR     66  62  87 CALM      30.11R
$$

...KEY TO REMARKS...
VSB - VISIBILITY IN MILES
WCI - WIND CHILL INDEX
HX  - HEAT INDEX

$$



USA.gov is the U.S. government's official web portal to all federal, state and local government web resources and services.